Satellite: NO-44
Catalog number: 26931
Epoch time:      10020.65637756
Element set:    0368
Inclination:      067.0499 deg
RA of node:       224.0721 deg
Eccentricity:    0.0006772
Arg of perigee:   266.4498 deg
Mean anomaly:     093.5825 deg
Mean motion:   14.29578729 rev/day
Decay rate:      -2.08e-06 rev/day^2
Epoch rev:           43366
Checksum:              337

Satellite: SO-50
Catalog number: 27607
Epoch time:      10020.53407681
Element set:    0084
Inclination:      064.5588 deg
RA of node:       084.9805 deg
Eccentricity:    0.0041696
Arg of perigee:   143.2927 deg
Mean anomaly:     217.1023 deg
Mean motion:   14.71491243 rev/day
Decay rate:       -6.0e-08 rev/day^2
Epoch rev:           38065
Checksum:              293

Satellite: CO-55
Catalog number: 27844
Epoch time:      10020.68983886
Element set:     761
Inclination:      098.7113 deg
RA of node:       031.7696 deg
Eccentricity:    0.0009200
Arg of perigee:   235.5369 deg
Mean anomaly:     124.4938 deg
Mean motion:   14.20679541 rev/day
Decay rate:        6.8e-07 rev/day^2
Epoch rev:           34014
Checksum:              320

Satellite: CO-57
Catalog number: 27848
Epoch time:      10020.69807130
Element set:     712
Inclination:      098.7168 deg
RA of node:       030.8519 deg
Eccentricity:    0.0008854
Arg of perigee:   238.9589 deg
Mean anomaly:     121.0715 deg
Mean motion:   14.20475700 rev/day
Decay rate:        2.7e-07 rev/day^2
Epoch rev:           34010
Checksum:              297

Satellite: AO-51
Catalog number: 28375
Epoch time:      10021.74302792
Element set:     585
Inclination:      098.0543 deg
RA of node:       023.6348 deg
Eccentricity:    0.0083248
Arg of perigee:   181.2978 deg
Mean anomaly:     178.8001 deg
Mean motion:   14.40666090 rev/day
Decay rate:        7.0e-08 rev/day^2
Epoch rev:           29242
Checksum:              302

Satellite: CO-56
Catalog number: 28941
Epoch time:      09297.68475575
Element set:     556
Inclination:      098.0955 deg
RA of node:       138.9518 deg
Eccentricity:    0.0011688
Arg of perigee:   319.8691 deg
Mean anomaly:     040.7485 deg
Mean motion:   16.46998778 rev/day
Decay rate:  1.4491492e-01 rev/day^2
Epoch rev:           20790
Checksum:              407

Satellite: GENESAT1
Catalog number: 29655
Epoch time:      10021.88211146
Element set:     921
Inclination:      040.0210 deg
RA of node:       247.1505 deg
Eccentricity:    0.0006292
Arg of perigee:   325.8339 deg
Mean anomaly:     034.2077 deg
Mean motion:   15.72685363 rev/day
Decay rate:     2.5268e-04 rev/day^2
Epoch rev:           17682
Checksum:              281

Satellite: CP3
Catalog number: 31129
Epoch time:      10021.11347309
Element set:     485
Inclination:      097.9618 deg
RA of node:       068.4105 deg
Eccentricity:    0.0102122
Arg of perigee:   330.6206 deg
Mean anomaly:     028.9252 deg
Mean motion:   14.52201874 rev/day
Decay rate:       1.03e-06 rev/day^2
Epoch rev:           14651
Checksum:              252

Satellite: CO-65
Catalog number: 32785
Epoch time:      10021.07362635
Element set:     583
Inclination:      097.9161 deg
RA of node:       087.9066 deg
Eccentricity:    0.0015937
Arg of perigee:   046.0154 deg
Mean anomaly:     314.2392 deg
Mean motion:   14.81571264 rev/day
Decay rate:       1.94e-06 rev/day^2
Epoch rev:            9370
Checksum:              308

Satellite: KKS-1
Catalog number: 33493
Epoch time:      10021.77010165
Element set:     138
Inclination:      098.0707 deg
RA of node:       140.1816 deg
Eccentricity:    0.0018907
Arg of perigee:   253.7783 deg
Mean anomaly:     106.1365 deg
Mean motion:   14.80826413 rev/day
Decay rate:       3.68e-06 rev/day^2
Epoch rev:            5381
Checksum:              281

Satellite: SOHLA-1
Catalog number: 33496
Epoch time:      10020.46908595
Element set:    0006
Inclination:      098.0477 deg
RA of node:       131.5721 deg
Eccentricity:    0.0005818
Arg of perigee:   319.5208 deg
Mean anomaly:     040.5565 deg
Mean motion:   14.69464710 rev/day
Decay rate:       +4.5e-07 rev/day^2
Epoch rev:           05318
Checksum:              292

/EX
SB KEPS @ AMSAT  $ORB10021.W
Orbital Elements  10021.WEATHER

HR AMSAT ORBITAL ELEMENTS FOR WEATHER SATELLITES
FROM WA5QGD FORT WORTH,TX January 21, 2010
Send Subscribe/unsubscribe to KEPS at 
http://www.amsat.org/mailman/listinfo/keps
BID: ORB10021.W
TO ALL RADIO AMATEURS BT

Satellite: NOAA-10
Catalog number: 16969
Epoch time:      10020.59941262
Element set:    0926
Inclination:      098.6721 deg
RA of node:       050.8396 deg
Eccentricity:    0.0011630
Arg of perigee:   284.3357 deg
Mean anomaly:     075.6521 deg
Mean motion:   14.27404744 rev/day
Decay rate:       +4.7e-07 rev/day^2
Epoch rev:           21452
Checksum:              298

Satellite: NOAA-11
Catalog number: 19531
Epoch time:      10020.79963920
Element set:    0941
Inclination:      098.7749 deg
RA of node:       112.3188 deg
Eccentricity:    0.0011016
Arg of perigee:   205.6877 deg
Mean anomaly:     154.3756 deg
Mean motion:   14.14913029 rev/day
Decay rate:      +1.89e-06 rev/day^2
Epoch rev:           10029
Checksum:              302

